| time (UTC) | temp C | wind direction | speed KPH | gust KPH | rain 1hr cm | rain 24hr cm | rain mn cm | humidity % | barometer mb |
| 20260906155407 | 25 | 94 | 6.4 | 12.9 | 0.00 | 0.00 | 0.00 | 79 | 1016.5 |
| 20260906154908 | 25 | 62 | 6.4 | 12.9 | 0.00 | 0.00 | 0.00 | 80 | 1016.5 |
| 20260906154408 | 25 | 58 | 4.8 | 12.9 | 0.00 | 0.00 | 0.00 | 79 | 1016.5 |
| 20260906153905 | 25 | 55 | 4.8 | 11.3 | 0.00 | 0.00 | 0.00 | 79 | 1016.4 |
| 20260906153405 | 25 | 50 | 4.8 | 11.3 | 0.00 | 0.00 | 0.00 | 78 | 1016.4 |
| 20260906152905 | 25 | 49 | 4.8 | 11.3 | 0.00 | 0.00 | 0.00 | 79 | 1016.4 |
| 20260906152414 | 25 | 77 | 4.8 | 11.3 | 0.00 | 0.00 | 0.00 | 80 | 1016.4 |
| 20260906152404 | 25 | 352 | 4.8 | 11.3 | 0.00 | 0.00 | 0.00 | 80 | 1016.4 |
| 20260906151905 | 26 | 51 | 4.8 | 9.7 | 0.00 | 0.00 | 0.00 | 78 | 1016.4 |
| 20260906151405 | 26 | 1 | 4.8 | 9.7 | 0.00 | 0.00 | 0.00 | 78 | 1016.3 |
| 20260906150905 | 26 | 90 | 4.8 | 8.0 | 0.00 | 0.00 | 0.00 | 78 | 1016.3 |
| 20260906150359 | 25 | 89 | 4.8 | 8.0 | 0.00 | 0.00 | 0.00 | 79 | 1016.3 |
| 20260906145853 | 25 | 137 | 3.2 | 8.0 | 0.00 | 0.00 | 0.00 | 81 | 1016.2 |
| 20260906145353 | 24 | 51 | 3.2 | 8.0 | 0.00 | 0.00 | 0.00 | 83 | 1016.2 |
| 20260906144853 | 24 | 67 | 3.2 | 9.7 | 0.00 | 0.00 | 0.00 | 83 | 1016.2 |
| 20260906144354 | 24 | 65 | 3.2 | 9.7 | 0.00 | 0.00 | 0.00 | 84 | 1016.2 |
| 20260906143853 | 24 | 114 | 3.2 | 9.7 | 0.00 | 0.00 | 0.00 | 83 | 1016.1 |
| 20260906143354 | 24 | 78 | 4.8 | 9.7 | 0.00 | 0.00 | 0.00 | 84 | 1016.0 |
| 20260906142855 | 24 | 50 | 3.2 | 9.7 | 0.00 | 0.00 | 0.00 | 83 | 1016.0 |
| 20260906142455 | 24 | 120 | 3.2 | 9.7 | 0.00 | 0.00 | 0.00 | 83 | 1016.0 |
| 20260906141348 | 24 | 117 | 3.2 | 8.0 | 0.00 | 0.00 | 0.00 | 83 | 1016.1 |
| 20260906140847 | 24 | 78 | 3.2 | 9.7 | 0.00 | 0.00 | 0.00 | 84 | 1016.2 |
| 20260906140348 | 24 | 71 | 3.2 | 9.7 | 0.00 | 0.00 | 0.00 | 84 | 1016.2 |
| 20260906135349 | 24 | 1 | 3.2 | 9.7 | 0.00 | 0.00 | 0.00 | 83 | 1016.2 |
| 20260906134849 | 24 | 25 | 3.2 | 9.7 | 0.00 | 0.00 | 0.00 | 85 | 1016.1 |
| 20260906133345 | 23 | 124 | 3.2 | 9.7 | 0.00 | 0.00 | 0.00 | 87 | 1015.9 |
| 20260906132843 | 23 | 76 | 4.8 | 9.7 | 0.00 | 0.00 | 0.00 | 87 | 1015.8 |
| 20260906132406 | 23 | 75 | 4.8 | 9.7 | 0.00 | 0.00 | 0.00 | 87 | 1015.8 |
| 20260906132339 | 23 | 79 | 4.8 | 9.7 | 0.00 | 0.00 | 0.00 | 87 | 1015.8 |
| 20260906131839 | 23 | 42 | 4.8 | 9.7 | 0.00 | 0.00 | 0.00 | 87 | 1015.7 |
| 20260906131339 | 23 | 55 | 3.2 | 9.7 | 0.00 | 0.00 | 0.00 | 89 | 1015.6 |
| 20260906130337 | 23 | 105 | 3.2 | 9.7 | 0.00 | 0.00 | 0.00 | 90 | 1015.5 |
| 20260906125836 | 23 | 244 | 3.2 | 9.7 | 0.00 | 0.00 | 0.00 | 91 | 1015.5 |
| 20260906124837 | 22 | 84 | 3.2 | 9.7 | 0.00 | 0.00 | 0.00 | 92 | 1015.3 |
| 20260906124337 | 22 | 116 | 3.2 | 9.7 | 0.00 | 0.00 | 0.00 | 92 | 1015.2 |
| 20260906123837 | 22 | 77 | 3.2 | 9.7 | 0.00 | 0.00 | 0.00 | 93 | 1015.1 |
| 20260906123337 | 22 | 57 | 3.2 | 8.0 | 0.00 | 0.00 | 0.00 | 93 | 1015.1 |
| 20260906122837 | 22 | 108 | 3.2 | 8.0 | 0.00 | 0.00 | 0.00 | 93 | 1015.1 |
| 20260906122404 | 22 | 74 | 3.2 | 8.0 | 0.00 | 0.00 | 0.00 | 93 | 1014.9 |
| 20260906122337 | 22 | 57 | 3.2 | 8.0 | 0.00 | 0.00 | 0.00 | 93 | 1014.9 |
| 20260906121337 | 22 | 58 | 3.2 | 6.4 | 0.00 | 0.00 | 0.00 | 93 | 1014.9 |
| 20260906120838 | 22 | 78 | 3.2 | 4.8 | 0.00 | 0.00 | 0.00 | 93 | 1014.9 |
| 20260906120337 | 22 | 97 | 3.2 | 4.8 | 0.00 | 0.00 | 0.00 | 93 | 1014.8 |
| 20260906115837 | 22 | 13 | 3.2 | 4.8 | 0.00 | 0.00 | 0.00 | 93 | 1014.9 |
| 20260906115335 | 22 | 4 | 1.6 | 4.8 | 0.00 | 0.00 | 0.00 | 93 | 1014.9 |
| 20260906114836 | 22 | 78 | 1.6 | 6.4 | 0.00 | 0.00 | 0.00 | 93 | 1014.9 |
| 20260906114335 | 22 | 80 | 1.6 | 6.4 | 0.00 | 0.00 | 0.00 | 93 | 1014.8 |
| 20260906113835 | 22 | 36 | 1.6 | 6.4 | 0.00 | 0.00 | 0.00 | 93 | 1014.7 |
| 20260906113328 | 22 | 98 | 1.6 | 6.4 | 0.00 | 0.00 | 0.00 | 93 | 1014.8 |
| 20260906112826 | 22 | 53 | 1.6 | 4.8 | 0.00 | 0.00 | 0.00 | 93 | 1014.8 |
| 20260906112402 | 22 | 18 | 1.6 | 6.4 | 0.00 | 0.00 | 0.00 | 93 | 1014.7 |
| 20260906112326 | 22 | 85 | 1.6 | 4.8 | 0.00 | 0.00 | 0.00 | 93 | 1014.7 |
| 20260906111826 | 22 | 68 | 1.6 | 4.8 | 0.00 | 0.00 | 0.00 | 93 | 1014.7 |
| 20260906110820 | 22 | 130 | 3.2 | 6.4 | 0.00 | 0.00 | 0.00 | 92 | 1014.6 |
| 20260906110321 | 22 | 75 | 3.2 | 6.4 | 0.00 | 0.00 | 0.00 | 92 | 1014.6 |
| 20260906105820 | 22 | 45 | 3.2 | 4.8 | 0.00 | 0.00 | 0.00 | 92 | 1014.7 |
| 20260906105320 | 22 | 89 | 3.2 | 6.4 | 0.00 | 0.00 | 0.00 | 92 | 1014.7 |
| 20260906104820 | 22 | 63 | 3.2 | 6.4 | 0.00 | 0.00 | 0.00 | 92 | 1014.6 |
| 20260906103812 | 22 | 359 | 3.2 | 6.4 | 0.00 | 0.00 | 0.00 | 92 | 1014.7 |
| 20260906103309 | 22 | 93 | 3.2 | 6.4 | 0.00 | 0.00 | 0.00 | 92 | 1014.6 |
| 20260906102809 | 22 | 1 | 1.6 | 4.8 | 0.00 | 0.00 | 0.00 | 92 | 1014.7 |
| 20260906102308 | 22 | 21 | 1.6 | 8.0 | 0.00 | 0.00 | 0.00 | 92 | 1014.7 |
| 20260906101306 | 22 | 68 | 3.2 | 6.4 | 0.00 | 0.00 | 0.00 | 92 | 1014.6 |
| 20260906100806 | 22 | 117 | 1.6 | 6.4 | 0.00 | 0.00 | 0.00 | 92 | 1014.6 |
| 20260906100303 | 23 | 12 | 1.6 | 6.4 | 0.00 | 0.00 | 0.00 | 91 | 1014.3 |
| 20260906095759 | 23 | 121 | 3.2 | 8.0 | 0.00 | 0.00 | 0.00 | 91 | 1014.2 |
| 20260906095300 | 23 | 112 | 1.6 | 8.0 | 0.00 | 0.00 | 0.00 | 91 | 1014.2 |
| 20260906093800 | 23 | 118 | 3.2 | 8.0 | 0.00 | 0.00 | 0.00 | 91 | 1014.1 |
| 20260906093300 | 23 | 65 | 3.2 | 8.0 | 0.00 | 0.00 | 0.00 | 91 | 1014.1 |
| 20260906092801 | 23 | 99 | 3.2 | 8.0 | 0.00 | 0.00 | 0.00 | 91 | 1014.2 |
| 20260906092400 | 23 | 52 | 3.2 | 6.4 | 0.00 | 0.00 | 0.00 | 92 | 1014.3 |
| 20260906092300 | 23 | 83 | 3.2 | 6.4 | 0.00 | 0.00 | 0.00 | 92 | 1014.3 |
| 20260906091300 | 23 | 144 | 3.2 | 6.4 | 0.00 | 0.00 | 0.00 | 92 | 1014.1 |
| 20260906090800 | 23 | 111 | 1.6 | 4.8 | 0.00 | 0.00 | 0.00 | 93 | 1014.1 |
| 20260906090258 | 23 | 79 | 1.6 | 3.2 | 0.00 | 0.00 | 0.00 | 93 | 1014.0 |
| 20260906085758 | 23 | 56 | 1.6 | 4.8 | 0.00 | 0.00 | 0.00 | 93 | 1013.9 |
| 20260906085259 | 23 | 66 | 1.6 | 4.8 | 0.00 | 0.00 | 0.00 | 93 | 1013.8 |
| 20260906084755 | 23 | 82 | 1.6 | 4.8 | 0.00 | 0.00 | 0.00 | 93 | 1013.7 |
| 20260906084256 | 23 | 93 | 3.2 | 4.8 | 0.00 | 0.00 | 0.00 | 93 | 1013.7 |
| 20260906083753 | 23 | 92 | 3.2 | 6.4 | 0.00 | 0.00 | 0.00 | 92 | 1013.7 |
| 20260906083249 | 23 | 83 | 3.2 | 6.4 | 0.00 | 0.00 | 0.00 | 92 | 1013.7 |
| 20260906082750 | 23 | 110 | 1.6 | 4.8 | 0.00 | 0.00 | 0.00 | 92 | 1013.8 |
| 20260906082359 | 23 | 20 | 1.6 | 6.4 | 0.00 | 0.00 | 0.00 | 92 | 1013.7 |
| 20260906081750 | 23 | 93 | 1.6 | 3.2 | 0.00 | 0.00 | 0.00 | 92 | 1013.7 |
| 20260906081250 | 23 | 132 | 1.6 | 4.8 | 0.00 | 0.00 | 0.00 | 92 | 1013.7 |
| 20260906080248 | 23 | 289 | 1.6 | 3.2 | 0.00 | 0.00 | 0.00 | 92 | 1013.6 |
| 20260906075745 | 23 | 124 | 1.6 | 4.8 | 0.00 | 0.00 | 0.00 | 92 | 1013.7 |
| 20260906074742 | 23 | 106 | 3.2 | 6.4 | 0.00 | 0.00 | 0.00 | 92 | 1013.7 |
| 20260906074241 | 23 | 109 | 3.2 | 6.4 | 0.00 | 0.00 | 0.00 | 92 | 1013.6 |
| 20260906073739 | 23 | 14 | 3.2 | 6.4 | 0.00 | 0.00 | 0.00 | 92 | 1013.6 |
| 20260906073238 | 23 | 52 | 1.6 | 4.8 | 0.00 | 0.00 | 0.00 | 92 | 1013.6 |
| 20260906072737 | 23 | 149 | 1.6 | 4.8 | 0.00 | 0.00 | 0.00 | 92 | 1013.6 |
| 20260906072356 | 23 | 105 | 1.6 | 9.7 | 0.00 | 0.00 | 0.00 | 92 | 1013.7 |
| 20260906072233 | 23 | 359 | 1.6 | 6.4 | 0.00 | 0.00 | 0.00 | 92 | 1013.7 |
| 20260906071733 | 23 | 94 | 3.2 | 6.4 | 0.00 | 0.00 | 0.00 | 92 | 1013.8 |
| 20260906070733 | 23 | 99 | 3.2 | 6.4 | 0.00 | 0.00 | 0.00 | 92 | 1013.7 |
| 20260906070233 | 23 | 80 | 3.2 | 6.4 | 0.00 | 0.00 | 0.00 | 92 | 1013.8 |
| 20260906065233 | 23 | 85 | 3.2 | 6.4 | 0.00 | 0.00 | 0.00 | 91 | 1014.0 |
| 20260906064734 | 23 | 103 | 3.2 | 6.4 | 0.00 | 0.00 | 0.00 | 91 | 1014.1 |
| 20260906064230 | 23 | 45 | 3.2 | 6.4 | 0.00 | 0.00 | 0.00 | 91 | 1014.1 |
| 20260906063730 | 24 | 87 | 3.2 | 9.7 | 0.00 | 0.00 | 0.00 | 91 | 1014.1 |
| 20260906063231 | 24 | 125 | 3.2 | 9.7 | 0.00 | 0.00 | 0.00 | 91 | 1014.1 |
| 20260906062355 | 24 | 51 | 3.2 | 11.3 | 0.00 | 0.00 | 0.00 | 91 | 1014.0 |
| 20260906062218 | 24 | 69 | 3.2 | 9.7 | 0.00 | 0.00 | 0.00 | 91 | 1014.1 |
| 20260906061718 | 24 | 73 | 3.2 | 9.7 | 0.00 | 0.00 | 0.00 | 91 | 1014.1 |
| 20260906061218 | 24 | 137 | 3.2 | 11.3 | 0.00 | 0.00 | 0.00 | 90 | 1014.1 |
| 20260906060719 | 24 | 109 | 3.2 | 11.3 | 0.00 | 0.00 | 0.00 | 90 | 1014.1 |
| 20260906055718 | 24 | 55 | 3.2 | 8.0 | 0.00 | 0.00 | 0.00 | 90 | 1014.0 |
| 20260906055219 | 24 | 15 | 3.2 | 6.4 | 0.00 | 0.00 | 0.00 | 90 | 1014.0 |
| 20260906054718 | 24 | 95 | 3.2 | 8.0 | 0.00 | 0.00 | 0.00 | 90 | 1013.9 |
| 20260906054219 | 25 | 10 | 3.2 | 8.0 | 0.00 | 0.00 | 0.00 | 89 | 1014.0 |
| 20260906053719 | 25 | 49 | 3.2 | 6.4 | 0.00 | 0.00 | 0.00 | 89 | 1014.0 |
| 20260906053220 | 25 | 335 | 3.2 | 8.0 | 0.00 | 0.00 | 0.00 | 89 | 1014.0 |
| 20260906052719 | 25 | 317 | 3.2 | 9.7 | 0.00 | 0.00 | 0.00 | 89 | 1013.9 |
| 20260906052353 | 25 | 79 | 3.2 | 9.7 | 0.00 | 0.00 | 0.00 | 89 | 1013.8 |
| 20260906052220 | 25 | 16 | 3.2 | 9.7 | 0.00 | 0.00 | 0.00 | 89 | 1013.8 |
| 20260906051720 | 25 | 57 | 3.2 | 6.4 | 0.00 | 0.00 | 0.00 | 89 | 1013.8 |
| 20260906051217 | 25 | 102 | 3.2 | 6.4 | 0.00 | 0.00 | 0.00 | 88 | 1013.8 |
| 20260906050717 | 25 | 13 | 3.2 | 6.4 | 0.00 | 0.00 | 0.00 | 88 | 1013.8 |
| 20260906050218 | 25 | 49 | 3.2 | 6.4 | 0.00 | 0.00 | 0.00 | 88 | 1013.7 |
| 20260906045718 | 25 | 83 | 3.2 | 9.7 | 0.00 | 0.00 | 0.00 | 88 | 1013.6 |
| 20260906045212 | 25 | 53 | 3.2 | 9.7 | 0.00 | 0.00 | 0.00 | 88 | 1013.6 |
| 20260906044711 | 25 | 56 | 3.2 | 6.4 | 0.00 | 0.00 | 0.00 | 88 | 1013.6 |
| 20260906044211 | 25 | 11 | 3.2 | 6.4 | 0.00 | 0.00 | 0.00 | 87 | 1013.5 |
| 20260906043211 | 26 | 76 | 3.2 | 9.7 | 0.00 | 0.00 | 0.00 | 87 | 1013.5 |
| 20260906042711 | 26 | 82 | 3.2 | 9.7 | 0.00 | 0.00 | 0.00 | 87 | 1013.5 |
| 20260906042211 | 26 | 51 | 3.2 | 6.4 | 0.00 | 0.00 | 0.00 | 87 | 1013.4 |
| 20260906041712 | 26 | 110 | 3.2 | 6.4 | 0.00 | 0.00 | 0.00 | 87 | 1013.3 |
| 20260906041211 | 26 | 60 | 3.2 | 9.7 | 0.00 | 0.00 | 0.00 | 87 | 1013.2 |
| 20260906040710 | 26 | 101 | 3.2 | 9.7 | 0.00 | 0.00 | 0.00 | 87 | 1013.2 |
| 20260906040203 | 26 | 59 | 3.2 | 9.7 | 0.00 | 0.00 | 0.00 | 86 | 1013.1 |
| 20260906035702 | 26 | 56 | 3.2 | 8.0 | 0.00 | 0.00 | 0.00 | 86 | 1013.1 |
| 20260906035203 | 26 | 53 | 3.2 | 8.0 | 0.00 | 0.00 | 0.00 | 86 | 1013.1 |
| 20260906034703 | 26 | 45 | 3.2 | 8.0 | 0.00 | 0.00 | 0.00 | 86 | 1013.2 |
| 20260906034203 | 26 | 55 | 4.8 | 9.7 | 0.00 | 0.00 | 0.00 | 85 | 1013.2 |
| 20260906033704 | 26 | 97 | 4.8 | 9.7 | 0.00 | 0.00 | 0.00 | 85 | 1013.2 |
| 20260906033200 | 27 | 62 | 3.2 | 6.4 | 0.00 | 0.00 | 0.00 | 86 | 1013.1 |
| 20260906032351 | 27 | 89 | 3.2 | 9.7 | 0.00 | 0.00 | 0.00 | 86 | 1013.0 |
| 20260906032156 | 27 | 92 | 3.2 | 6.4 | 0.00 | 0.00 | 0.00 | 86 | 1013.0 |
| 20260906031653 | 27 | 105 | 3.2 | 8.0 | 0.00 | 0.00 | 0.00 | 86 | 1012.9 |
| 20260906030153 | 27 | 33 | 3.2 | 8.0 | 0.00 | 0.00 | 0.00 | 85 | 1012.7 |
| 20260906025648 | 27 | 57 | 3.2 | 8.0 | 0.00 | 0.00 | 0.00 | 85 | 1012.5 |
| 20260906025149 | 28 | 134 | 3.2 | 9.7 | 0.00 | 0.00 | 0.00 | 85 | 1012.5 |
| 20260906024649 | 28 | 43 | 4.8 | 9.7 | 0.00 | 0.00 | 0.00 | 84 | 1012.4 |
| 20260906024148 | 28 | 102 | 4.8 | 9.7 | 0.00 | 0.00 | 0.00 | 83 | 1012.3 |
| 20260906023649 | 28 | 47 | 4.8 | 9.7 | 0.00 | 0.00 | 0.00 | 82 | 1012.2 |
| 20260906023149 | 28 | 53 | 4.8 | 9.7 | 0.00 | 0.00 | 0.00 | 81 | 1012.2 |
| 20260906022648 | 29 | 97 | 3.2 | 9.7 | 0.00 | 0.00 | 0.00 | 80 | 1012.1 |
| 20260906022149 | 29 | 71 | 3.2 | 9.7 | 0.00 | 0.00 | 0.00 | 79 | 1012.1 |
| 20260906021646 | 29 | 43 | 3.2 | 9.7 | 0.00 | 0.00 | 0.00 | 78 | 1012.1 |
| 20260906021142 | 29 | 95 | 3.2 | 4.8 | 0.00 | 0.00 | 0.00 | 78 | 1012.0 |
| 20260906020637 | 29 | 17 | 1.6 | 6.4 | 0.00 | 0.00 | 0.00 | 78 | 1011.9 |
| 20260906015638 | 29 | 57 | 1.6 | 6.4 | 0.00 | 0.00 | 0.00 | 78 | 1011.8 |
| 20260906015138 | 29 | 87 | 1.6 | 6.4 | 0.00 | 0.00 | 0.00 | 78 | 1011.7 |
| 20260906014637 | 30 | 359 | 1.6 | 3.2 | 0.00 | 0.00 | 0.00 | 78 | 1011.7 |
| 20260906014137 | 30 | 117 | 1.6 | 3.2 | 0.00 | 0.00 | 0.00 | 77 | 1011.6 |
| 20260906013634 | 30 | 18 | 1.6 | 3.2 | 0.00 | 0.00 | 0.00 | 77 | 1011.4 |
| 20260906013133 | 30 | 83 | 1.6 | 3.2 | 0.00 | 0.00 | 0.00 | 77 | 1011.4 |
| 20260906012628 | 30 | 77 | 1.6 | 3.2 | 0.00 | 0.00 | 0.00 | 77 | 1011.5 |
| 20260906012343 | 30 | 100 | 1.6 | 6.4 | 0.00 | 0.00 | 0.00 | 77 | 1011.5 |
| 20260906012128 | 30 | 83 | 1.6 | 3.2 | 0.00 | 0.00 | 0.00 | 76 | 1011.5 |
| 20260906011628 | 30 | 80 | 1.6 | 3.2 | 0.00 | 0.00 | 0.00 | 76 | 1011.5 |
| 20260906011128 | 30 | 14 | 1.6 | 3.2 | 0.00 | 0.00 | 0.00 | 76 | 1011.4 |
| 20260906010629 | 30 | 89 | 1.6 | 6.4 | 0.00 | 0.00 | 0.00 | 75 | 1011.4 |
| 20260906010129 | 30 | 337 | 3.2 | 6.4 | 0.00 | 0.00 | 0.00 | 75 | 1011.3 |
| 20260906004629 | 31 | 55 | 3.2 | 6.4 | 0.00 | 0.00 | 0.00 | 74 | 1011.2 |
| 20260906003626 | 31 | 95 | 3.2 | 6.4 | 0.00 | 0.00 | 0.00 | 73 | 1011.2 |
| 20260906002627 | 31 | 42 | 1.6 | 6.4 | 0.00 | 0.00 | 0.00 | 72 | 1011.2 |
| 20260906002344 | 31 | 45 | 1.6 | 8.0 | 0.00 | 0.00 | 0.00 | 72 | 1011.2 |
| 20260906002124 | 31 | 59 | 1.6 | 6.4 | 0.00 | 0.00 | 0.00 | 72 | 1011.2 |
| 20260906001120 | 31 | 97 | 3.2 | 6.4 | 0.00 | 0.00 | 0.00 | 71 | 1011.3 |
| 20260906000621 | 32 | 124 | 3.2 | 6.4 | 0.00 | 0.00 | 0.00 | 69 | 1011.3 |
| 20260906000120 | 32 | 56 | 3.2 | 6.4 | 0.00 | 0.00 | 0.00 | 69 | 1011.3 |
| 20260905235622 | 32 | 101 | 3.2 | 6.4 | 0.00 | 0.00 | 0.00 | 68 | 1011.4 |
| 20260905235120 | 32 | 50 | 3.2 | 6.4 | 0.00 | 0.00 | 0.00 | 69 | 1011.3 |
| 20260905234618 | 32 | 11 | 3.2 | 4.8 | 0.00 | 0.00 | 0.00 | 68 | 1011.2 |
| 20260905234118 | 32 | 101 | 3.2 | 6.4 | 0.00 | 0.00 | 0.00 | 68 | 1011.2 |
| 20260905233618 | 32 | 53 | 3.2 | 8.0 | 0.00 | 0.00 | 0.00 | 68 | 1011.2 |
| 20260905233119 | 32 | 54 | 3.2 | 8.0 | 0.00 | 0.00 | 0.00 | 68 | 1011.2 |
| 20260905232618 | 32 | 39 | 3.2 | 9.7 | 0.00 | 0.00 | 0.00 | 67 | 1011.2 |
| 20260905232119 | 32 | 50 | 4.8 | 9.7 | 0.00 | 0.00 | 0.00 | 67 | 1011.0 |
| 20260905231116 | 32 | 58 | 3.2 | 9.7 | 0.00 | 0.00 | 0.00 | 67 | 1011.1 |
| 20260905225613 | 32 | 50 | 3.2 | 8.0 | 0.00 | 0.00 | 0.00 | 65 | 1011.0 |
| 20260905225112 | 32 | 59 | 3.2 | 11.3 | 0.00 | 0.00 | 0.00 | 65 | 1010.9 |
| 20260905224110 | 33 | 55 | 3.2 | 8.0 | 0.00 | 0.00 | 0.00 | 65 | 1010.7 |
| 20260905223610 | 33 | 46 | 3.2 | 8.0 | 0.00 | 0.00 | 0.00 | 64 | 1010.8 |
| 20260905222601 | 33 | 38 | 4.8 | 11.3 | 0.00 | 0.00 | 0.00 | 61 | 1010.7 |
| 20260905222101 | 33 | 57 | 4.8 | 9.7 | 0.00 | 0.00 | 0.00 | 61 | 1010.8 |
| 20260905221600 | 33 | 46 | 3.2 | 8.0 | 0.00 | 0.00 | 0.00 | 61 | 1010.9 |
| 20260905221101 | 33 | 63 | 3.2 | 6.4 | 0.00 | 0.00 | 0.00 | 60 | 1010.7 |
| 20260905220601 | 33 | 59 | 1.6 | 6.4 | 0.00 | 0.00 | 0.00 | 60 | 1010.7 |
| 20260905215557 | 33 | 19 | 3.2 | 9.7 | 0.00 | 0.00 | 0.00 | 60 | 1010.5 |
| 20260905214557 | 34 | 56 | 3.2 | 8.0 | 0.00 | 0.00 | 0.00 | 60 | 1010.6 |
| 20260905213556 | 34 | 11 | 3.2 | 16.1 | 0.00 | 0.00 | 0.00 | 59 | 1010.6 |
| 20260905213053 | 35 | 37 | 3.2 | 8.0 | 0.00 | 0.00 | 0.00 | 58 | 1010.6 |
| 20260905212335 | 35 | 99 | 3.2 | 8.0 | 0.00 | 0.00 | 0.00 | 56 | 1010.7 |
| 20260905212053 | 35 | 45 | 3.2 | 6.4 | 0.00 | 0.00 | 0.00 | 56 | 1010.7 |
| 20260905211552 | 35 | 60 | 1.6 | 6.4 | 0.00 | 0.00 | 0.00 | 55 | 1010.7 |
| 20260905211053 | 35 | 51 | 1.6 | 4.8 | 0.00 | 0.00 | 0.00 | 55 | 1010.8 |
| 20260905210553 | 35 | 53 | 3.2 | 8.0 | 0.00 | 0.00 | 0.00 | 57 | 1010.8 |
| 20260905210050 | 35 | 29 | 3.2 | 8.0 | 0.00 | 0.00 | 0.00 | 55 | 1010.8 |
| 20260905205050 | 35 | 53 | 3.2 | 8.0 | 0.00 | 0.00 | 0.00 | 56 | 1011.0 |
| 20260905204550 | 35 | 102 | 3.2 | 8.0 | 0.00 | 0.00 | 0.00 | 56 | 1011.0 |
| 20260905203548 | 36 | 47 | 3.2 | 8.0 | 0.00 | 0.00 | 0.00 | 54 | 1011.0 |
| 20260905203039 | 36 | 39 | 3.2 | 8.0 | 0.00 | 0.00 | 0.00 | 52 | 1011.1 |
| 20260905202536 | 36 | 56 | 3.2 | 6.4 | 0.00 | 0.00 | 0.00 | 52 | 1011.1 |
| 20260905202333 | 36 | 318 | 3.2 | 8.0 | 0.00 | 0.00 | 0.00 | 53 | 1011.2 |
| 20260905201536 | 36 | 348 | 3.2 | 6.4 | 0.00 | 0.00 | 0.00 | 50 | 1011.2 |
| 20260905201033 | 36 | 296 | 1.6 | 6.4 | 0.00 | 0.00 | 0.00 | 49 | 1011.2 |
| 20260905200530 | 36 | 44 | 1.6 | 6.4 | 0.00 | 0.00 | 0.00 | 49 | 1011.3 |
| 20260905195530 | 36 | 24 | 3.2 | 6.4 | 0.00 | 0.00 | 0.00 | 52 | 1011.4 |
| 20260905194530 | 36 | 330 | 1.6 | 6.4 | 0.00 | 0.00 | 0.00 | 47 | 1011.6 |
| 20260905193527 | 35 | 336 | 3.2 | 8.0 | 0.00 | 0.00 | 0.00 | 51 | 1011.7 |
| 20260905193024 | 35 | 339 | 3.2 | 8.0 | 0.00 | 0.00 | 0.00 | 51 | 1011.8 |
| 20260905192522 | 36 | 334 | 3.2 | 8.0 | 0.00 | 0.00 | 0.00 | 54 | 1011.8 |
| 20260905192333 | 36 | 347 | 3.2 | 9.7 | 0.00 | 0.00 | 0.00 | 53 | 1011.9 |
| 20260905192022 | 37 | 274 | 3.2 | 8.0 | 0.00 | 0.00 | 0.00 | 49 | 1011.9 |
| 20260905191521 | 36 | 21 | 3.2 | 8.0 | 0.00 | 0.00 | 0.00 | 51 | 1012.0 |
| 20260905190518 | 36 | 41 | 3.2 | 9.7 | 0.00 | 0.00 | 0.00 | 51 | 1012.1 |
| 20260905185520 | 36 | 298 | 3.2 | 9.7 | 0.00 | 0.00 | 0.00 | 48 | 1012.2 |
| 20260905185021 | 36 | 40 | 3.2 | 9.7 | 0.00 | 0.00 | 0.00 | 51 | 1012.2 |
| 20260905184516 | 35 | 46 | 3.2 | 8.0 | 0.00 | 0.00 | 0.00 | 52 | 1012.2 |
| 20260905183513 | 35 | 324 | 3.2 | 9.7 | 0.00 | 0.00 | 0.00 | 56 | 1012.2 |
| 20260905183013 | 35 | 10 | 3.2 | 9.7 | 0.00 | 0.00 | 0.00 | 56 | 1012.2 |
| 20260905182514 | 35 | 288 | 3.2 | 9.7 | 0.00 | 0.00 | 0.00 | 54 | 1012.3 |
| 20260905182331 | 35 | 275 | 3.2 | 11.3 | 0.00 | 0.00 | 0.00 | 54 | 1012.3 |
| 20260905182013 | 35 | 314 | 3.2 | 4.8 | 0.00 | 0.00 | 0.00 | 55 | 1012.3 |
| 20260905181510 | 34 | 46 | 3.2 | 8.0 | 0.00 | 0.00 | 0.00 | 56 | 1012.3 |
| 20260905181008 | 35 | 312 | 3.2 | 8.0 | 0.00 | 0.00 | 0.00 | 57 | 1012.4 |
| 20260905180508 | 35 | 295 | 1.6 | 8.0 | 0.00 | 0.00 | 0.00 | 55 | 1012.4 |
| 20260905180008 | 35 | 281 | 1.6 | 6.4 | 0.00 | 0.00 | 0.00 | 56 | 1012.3 |
| 20260905175507 | 35 | 0 | 3.2 | 9.7 | 0.00 | 0.00 | 0.00 | 55 | 1012.2 |
| 20260905175005 | 34 | 35 | 3.2 | 9.7 | 0.00 | 0.00 | 0.00 | 56 | 1012.2 |
| 20260905174502 | 34 | 296 | 3.2 | 8.0 | 0.00 | 0.00 | 0.00 | 57 | 1012.3 |
| 20260905174002 | 34 | 7 | 3.2 | 8.0 | 0.00 | 0.00 | 0.00 | 56 | 1012.3 |
| 20260905173501 | 33 | 38 | 3.2 | 11.3 | 0.00 | 0.00 | 0.00 | 58 | 1012.3 |
| 20260905172959 | 33 | 322 | 3.2 | 11.3 | 0.00 | 0.00 | 0.00 | 58 | 1012.3 |
| 20260905172459 | 33 | 5 | 3.2 | 8.0 | 0.00 | 0.00 | 0.00 | 60 | 1012.4 |
| 20260905172329 | 33 | 295 | 3.2 | 9.7 | 0.00 | 0.00 | 0.00 | 60 | 1012.4 |
| 20260905171959 | 33 | 290 | 3.2 | 8.0 | 0.00 | 0.00 | 0.00 | 61 | 1012.5 |
| 20260905171459 | 33 | 316 | 3.2 | 8.0 | 0.00 | 0.00 | 0.00 | 61 | 1012.6 |
| 20260905170500 | 33 | 51 | 3.2 | 9.7 | 0.00 | 0.00 | 0.00 | 59 | 1012.7 |
| 20260905165959 | 33 | 312 | 3.2 | 6.4 | 0.00 | 0.00 | 0.00 | 60 | 1012.7 |
| 20260905165500 | 34 | 28 | 3.2 | 6.4 | 0.00 | 0.00 | 0.00 | 59 | 1012.7 |
| 20260905164957 | 34 | 279 | 1.6 | 6.4 | 0.00 | 0.00 | 0.00 | 55 | 1012.6 |
| 20260905164456 | 34 | 0 | 1.6 | 6.4 | 0.00 | 0.00 | 0.00 | 58 | 1012.6 |
| 20260905163954 | 33 | 338 | 3.2 | 8.0 | 0.00 | 0.00 | 0.00 | 60 | 1012.7 |
| 20260905163454 | 33 | 346 | 3.2 | 8.0 | 0.00 | 0.00 | 0.00 | 61 | 1012.7 |
| 20260905162954 | 33 | 287 | 3.2 | 6.4 | 0.00 | 0.00 | 0.00 | 60 | 1012.8 |
| 20260905162454 | 33 | 279 | 3.2 | 4.8 | 0.00 | 0.00 | 0.00 | 59 | 1012.8 |
| 20260905162327 | 33 | 262 | 3.2 | 9.7 | 0.00 | 0.00 | 0.00 | 59 | 1012.8 |
| 20260905161953 | 33 | 60 | 3.2 | 8.0 | 0.00 | 0.00 | 0.00 | 60 | 1012.8 |
| 20260905161451 | 32 | 347 | 3.2 | 8.0 | 0.00 | 0.00 | 0.00 | 61 | 1012.8 |
| 20260905160950 | 32 | 326 | 3.2 | 6.4 | 0.00 | 0.00 | 0.00 | 62 | 1012.8 |
| 20260905160451 | 32 | 326 | 3.2 | 6.4 | 0.00 | 0.00 | 0.00 | 62 | 1012.8 |
| 20260905155952 | 32 | 260 | 3.2 | 6.4 | 0.00 | 0.00 | 0.00 | 62 | 1012.8 |